Date,TemperatureHighF,TemperatureAvgF,TemperatureLowF,DewpointHighF,DewpointAvgF,DewpointLowF,HumidityHigh,HumidityAvg,HumidityLow,PressureMaxIn,PressureMinIn,WindSpeedMaxMPH,WindSpeedAvgMPH,GustSpeedMaxMPH,PrecipitationSumIn
2013-1-1,31,15,3,18,10,2,97,80,50,0.00,40.00,12,7,14,0.00
2013-1-2,33,24,11,23,16,5,92,73,57,0.00,40.00,19,11,27,0.00
2013-1-3,36,20,8,17,11,2,91,70,41,0.00,40.00,12,8,17,0.00
2013-1-4,41,23,10,21,11,2,80,61,37,0.00,40.00,13,8,15,0.00
2013-1-5,41,27,17,26,18,10,87,69,52,0.00,40.00,17,10,29,0.00
2013-1-6,47,27,10,28,19,6,88,72,44,0.00,40.00,18,12,24,0.00
2013-1-7,47,33,22,26,22,18,93,67,38,0.00,40.00,11,7,14,0.00
2013-1-8,51,33,20,31,24,17,91,71,43,0.00,40.00,16,8,22,0.00
2013-1-9,54,35,20,30,24,18,93,67,35,0.00,40.00,20,12,24,0.00
2013-1-10,51,38,31,41,33,24,99,81,67,0.00,40.00,17,10,24,0.00
2013-1-11,54,32,11,36,22,4,99,71,21,0.00,40.00,33,16,45,0.00
2013-1-12,19,11,3,6,3,0,86,71,54,0.00,40.00,20,9,24,0.00
2013-1-13,22,9,0,7,1,-4,85,72,48,0.00,40.00,11,6,16,0.00
2013-1-14,22,12,-2,19,10,-5,95,88,82,0.00,40.00,11,5,12,0.00
2013-1-15,32,19,0,25,10,-3,94,72,42,0.00,40.00,13,7,21,0.00
2013-1-16,49,37,26,27,24,20,78,60,39,0.00,40.00,22,10,31,0.00
2013-1-17,52,36,25,25,20,16,76,57,28,0.00,40.00,12,8,16,0.00
2013-1-18,62,39,26,25,20,11,79,51,20,0.00,40.00,14,10,22,0.00
2013-1-19,58,41,26,24,19,14,62,43,25,0.00,40.00,17,9,24,0.00
2013-1-20,48,28,13,24,19,13,99,74,33,0.00,40.00,29,11,36,0.00
2013-1-21,47,26,11,26,19,11,99,76,39,0.00,40.00,13,8,17,0.00
2013-1-22,58,36,13,24,16,8,95,51,20,0.00,40.00,17,8,22,0.00
2013-1-23,57,36,22,22,17,12,95,51,20,0.00,40.00,13,9,16,0.00
2013-1-24,22,19,18,21,19,18,99,99,96,0.00,40.00,16,10,20,0.00
2013-1-25,55,44,31,29,25,20,67,48,35,0.00,40.00,14,9,19,0.00
2013-1-26,61,41,20,37,27,18,93,62,31,0.00,40.00,11,7,14,0.00
2013-1-27,57,40,29,40,35,29,99,83,47,0.00,40.00,11,6,16,0.00
2013-1-28,62,39,30,37,32,28,99,81,27,0.00,40.00,22,12,31,0.00
2013-1-29,31,27,20,28,21,14,95,79,53,0.00,40.00,21,13,27,0.00
2013-1-30,39,25,8,23,14,5,86,65,35,0.00,40.00,24,11,34,0.00
2013-1-31,36,27,16,23,17,12,93,66,50,0.00,40.00,19,8,27,0.00